SCP
0 0 0 0 0 0 0 0 0 0 0 0 0 0 0 0 0 0 0 0 0 0 0 0 0 0 0 0 0 0 0 0 0 -0 -0 0 0 0 0 0 0 0 -0 0 -0 0 -0 -0 -0 -0 -0 -0 -0 0
0 0 0 0 0 0 0 0 0 0 0 0 0 0 0 0 0 0 0 0 0 0 0 0 0 0 0 0 0 0 0 0 0 -0 0 0 0 0 0 0 0 0 -0 -0 -0 -0 -0 -0 -0 -0 -0 0 0 0
0 0 0 0 0 0 0 0 0 0 0 0 0 0 0 0 0 0 0 0 0 0 0 0 0 0 0 0 0 0 0 0 0 0 0 0 0 0 0 0 0 0 0 0 0 0 -0 -0 -0 -0 -0 0 0 0
0 0 0 0 0 0 0 0 0 0 0 0 0 0 0 0 0 0 0 0 0 0 0 0 0 0 0 0 0 0 0 0 0 0 0 0 0 0 0 0 0 0 -0 -0 0 0 -0 -0 -0 -0 -0 0 0 0
0 0 0 0 0 0 0 0 0 0 0 0 0 0 0 0 0 0 0 0 0 0 0 0 0 0 0 0 0 0 0 0 0 0 0 0 0 0 0 0 0 -0 0 -0 -0 -0 -0 0 -0 -0 0 0 0 0
0 0 0 0 0 0 0 0 0 0 0 0 0 0 0 0 0 0 0 0 0 0 0 0 0 0 0 0 0 0 0 0 0 0 0 0 0 0 0 0 0 -0 -0 -0 0 0 0 0 0 0 0 0 0 0
0 0 0 0 0 0 0 0 0 0 0 0 0 0 0 0 0 0 0 0 0 0 0 0 0 0 0 0 0 0 0 0 0 0 0 -0 0 0 0 0 0 0 0 0 -0 0 0 0 0 0 0 0 0 0
0 0 0 0 0 0 0 0 0 0 0 0 0 0 0 0 0 0 0 0 0 0 0 0 0 0 0 0 0 0 0 0 0 0 -0 -0 0 0 0 0 -0 0 0 -0 0 0 0 0 0 0 0 0 0 0
0 0 0 0 0 0 0 0 0 0 0 0 0 0 0 0 0 0 0 0 0 0 0 0 0 0 0 0 0 0 0 0 0 0 -0 -0 -0 -0 0 0 -0 -0 -0 -0 -0 0 0 0 0 0 0 0 0 0
0 0 0 0 0 0 0 0 0 0 0 0 0 0 0 0 0 0 0 0 0 0 0 0 0 -0 -0 -0 -0 0 0 0 0 -0 -0 -0 -0 -0 0 0 0 0 0 -0 -0 0 0 0 0 0 0 0 -0 0
0 0 0 0 0 0 0 0 0 0 0 0 0 0 0 0 0 0 0 0 0 0 0 0 0 -0 -0 0 0 0 0 0 0 0 -0 -0 -0 0 -0 0 0 0 -0 -0 0 0 0 0 0 0 0 0 -0 -0
0 0 0 0 0 0 0 0 0 0 0 0 0 0 0 0 0 0 0 0 0 0 0 0 0 0 -0 0 0 0 0 0 0 -0 -0 -0 0 0 0 -0 0 -0 -0 0 0 0 0 0 0 0 0 0 0 0
0 0 0 0 0 0 0 0 0 0 0 0 0 0 0 0 0 0 0 0 0 0 0 0 0 -0 0 0 0 0 0 0 0 -0 -0 -0 0 0 -0 -0 -0 -0 -0 -0 -0 0 0 0 0 0 0 0 0 0
0 0 0 0 0 0 0 0 0 0 0 0 0 0 0 0 0 0 0 0 0 0 0 0 0 0 0 0 0 0 0 0 0 -0 -0 -0 0 0 0 -0 -0 -0 -0 -0 -0 0 0 0 0 0 0 0 0 0
0 0 0 -0 0 0 0 0 0 0 0 0 0 0 0 0 0 0 0 -0 0 0 0 0 -0 0 0 0 0 0 0 0 0 -0 0 0 0 0 0 0 -0 -0 -0 -0 -0 0 0 0 0 0 0 0 0 0
0 0 0 0 0 0 0 0 0 0 0 0 0 0 0 0 0 0 0 0 0 0 0 -0 -0 0 0 0 0 0 0 0 0 0 0 0 -0 0 0 0 -0 -0 -0 -0 0 0 0 0 0 0 0 0 0 0
0 0 0 0 0 0 0 0 0 0 0 0 0 0 0 0 0 0 0 0 0 0 0 -0 0 0 -0 0 0 0 0 0 0 0 0 0 0 0 -0 -0 0 -0 -0 -0 0 0 0 0 0 0 0 0 0 0
0 0 0 0 0 0 0 0 0 0 0 0 0 0 0 0 0 0 0 0 0 0 -0 -0 -0 -0 0 0 0 0 0 0 0 0 0 0 0 0 -0 0 0 0 -0 0 0 0 0 0 0 0 0 0 0 0
0 0 0 0 0 0 0 0 0 0 0 0 0 -0 0 0 0 0 0 0 0 0 0 -0 -0 0 0 0 0 0 0 0 0 0 0 0 0 -0 -0 0 0 0 0 -0 0 0 0 0 0 0 0 0 0 0
0 0 0 0 0 0 0 0 0 0 -0 -0 -0 -0 0 0 0 0 0 -0 0 0 0 -0 0 0 0 0 0 0 0 0 0 0 0 0 0 0 -0 0 0 0 0 0 0 0 0 0 0 0 0 0 0 0
0 0 0 0 0 0 0 0 0 0 -0 0 0 0 0 0 0 0 0 0 -0 -0 0 0 0 0 0 0 0 0 0 0 0 0 0 0 -0 0 0 0 0 0 0 0 0 0 0 0 0 0 0 0 0 0
0 0 0 0 0 0 0 0 0 0 -0 0 0 0 0 0 -0 -0 -0 -0 0 0 0 0 0 0 0 0 0 0 0 0 0 0 0 0 0 0 0 0 0 0 0 0 0 0 0 0 0 0 0 0 0 0
0 0 0 0 0 0 -0 0 0 -0 0 0 0 0 0 0 0 -0 0 0 0 0 0 0 0 0 0 0 0 0 0 0 0 0 0 0 0 0 0 0 0 0 0 0 0 0 0 0 0 0 0 0 0 0
0 0 0 0 0 0 0 0 0 0 0 0 0 -0 0 0 0 0 -0 0 0 0 0 0 0 -0 0 0 0 0 0 0 0 0 0 0 0 -0 -0 0 0 0 0 0 0 0 0 0 0 -0 0 0 0 0
0 0 0 0 0 0 0 0 -0 0 0 0 -0 0 0 0 0 0 0 -0 0 0 0 0 0 0 0 0 0 0 0 0 0 0 0 0 0 0 -0 -0 0 0 0 0 0 0 0 0 0 0 0 0 0 0
0 -0 0 0 0 0 0 0 0 -0 -0 0 0 0 0 0 0 0 0 0 0 0 0 0 0 0 0 0 0 0 0 0 0 0 0 0 0 -0 -0 -0 0 0 0 0 0 0 0 0 0 0 0 0 0 0
0 0 0 0 0 0 0 0 0 0 0 0 0 0 0 0 0 0 0 0 0 0 0 0 0 0 0 0 0 0 0 0 -0 0 -0 -0 0 -0 -0 -0 -0 0 0 0 0 0 0 0 0 0 0 0 0 0
0 0 0 0 0 0 0 0 0 0 0 0 0 0 0 0 0 0 0 0 0 0 0 0 0 0 0 0 0 0 0 0 0 0 0 0 0 0 -0 0 0 0 0 0 0 0 0 0 0 0 0 0 0 0
0 0 0 0 0 0 0 0 0 -0 0 -0 -0 0 0 0 0 0 0 0 0 0 0 0 0 0 0 0 0 0 0 0 0 0 -0 0 0 0 -0 0 0 0 0 0 0 0 0 0 0 0 0 0 0 0
0 0 0 0 0 0 0 0 -0 -0 0 0 0 0 0 0 0 0 0 0 0 -0 0 0 0 0 0 0 0 0 0 0 0 0 0 0 0 0 0 0 0 0 0 0 0 0 0 0 0 0 0 0 0 0
0 0 0 0 0 0 0 -0 0 0 0 0 0 0 0 0 0 0 0 0 0 0 0 0 -0 -0 0 0 0 0 0 0 0 0 0 0 0 0 0 0 0 0 0 0 0 0 0 0 0 0 0 0 0 0
0 0 0 0 0 -0 0 0 0 0 0 0 0 0 0 0 0 0 0 -0 0 -0 0 0 0 0 0 0 0 0 0 0 0 0 0 0 0 -0 0 0 0 0 0 -0 0 0 0 0 0 0 0 0 0 0
0 0 0 0 0 0 0 0 0 0 0 0 0 0 0 0 0 0 0 -0 -0 -0 -0 -0 -0 -0 -0 0 0 0 -0 -0 0 0 0 0 0 0 0 0 0 0 0 0 0 0 0 0 0 0 0 0 0 0
Wind_Speed_500mb
61 62 62 63 63 63 62 60 59 61 57 56 53 58 50 37 32 26 20 28 20 29 65 34 24 34 36 35 12 31 22 12 11 13 9 9 8 11 10 6 7 9 13 9 11 9 8 55 30 11 21 74 62 24
61 63 65 65 64 62 62 58 55 56 53 52 51 47 39 32 29 27 20 18 25 32 53 73 76 59 53 49 39 25 23 6 5 5 7 4 6 8 16 5 7 3 4 8 9 7 24 39 31 50 63 12 29 29
61 60 62 63 64 62 58 55 51 47 48 51 47 39 35 27 27 27 26 26 24 42 63 31 31 17 24 31 26 19 11 2 5 4 6 4 10 6 6 4 5 2 6 6 10 7 25 19 52 56 36 31 36 38
57 59 61 60 61 63 55 48 42 42 43 40 39 35 31 27 22 25 28 21 25 24 13 20 24 32 20 25 28 32 26 30 23 13 6 7 6 2 4 6 3 5 11 10 8 12 26 18 49 51 23 26 36 49
52 56 60 59 60 59 49 43 38 38 38 39 36 29 25 27 23 24 28 26 23 20 14 43 65 16 15 37 35 30 35 34 21 5 7 6 6 4 6 4 3 6 5 5 5 19 15 16 41 28 19 28 34 47
49 52 55 55 54 50 43 37 37 36 37 32 26 20 21 25 20 11 7 10 20 23 13 10 34 32 19 23 26 37 39 27 21 8 10 11 7 6 4 3 3 28 23 22 9 20 16 20 23 13 22 34 36 42
46 49 51 50 44 45 35 29 27 26 28 22 16 20 24 24 21 14 7 5 18 18 8 15 15 11 13 18 35 33 16 18 18 11 11 12 9 11 1 5 24 33 8 11 17 12 7 17 13 22 29 42 46 48
44 44 48 47 45 42 37 29 23 21 17 13 17 20 22 24 27 25 17 26 28 10 9 7 11 22 7 23 19 17 13 16 16 11 8 6 7 2 1 6 21 17 8 17 16 7 6 10 24 37 45 56 60 57
43 42 43 41 41 36 27 19 15 15 11 16 15 21 18 16 11 12 13 15 21 20 8 12 9 11 11 22 22 12 12 6 12 5 4 2 2 2 1 10 13 14 7 8 10 13 14 24 32 39 46 56 66 59
39 40 40 34 34 31 24 19 18 12 16 19 11 4 9 8 11 11 6 6 13 13 15 12 32 26 35 30 24 14 6 5 5 5 4 3 2 10 7 4 2 4 11 13 13 14 23 32 34 45 47 52 66 60
37 35 34 33 30 26 18 21 15 18 20 10 5 8 5 7 6 9 10 15 17 11 17 18 33 24 22 13 13 7 5 6 5 2 5 3 2 7 11 8 7 10 5 12 16 20 26 41 43 54 54 57 58 72
40 37 34 34 30 26 24 28 24 23 16 10 12 13 9 11 13 10 7 11 14 8 21 25 22 28 18 13 6 4 6 4 7 5 2 3 5 11 12 12 13 9 15 30 29 34 35 48 51 57 65 59 56 58
40 38 36 35 32 26 26 28 26 26 29 20 6 9 12 13 12 12 12 12 8 14 12 10 8 9 11 7 6 6 8 8 1 3 2 5 15 16 14 19 19 13 30 32 34 38 45 47 50 58 56 59 61 67
45 40 38 38 31 25 24 24 31 29 23 9 8 9 11 12 13 16 21 17 7 11 9 14 18 11 8 3 6 8 7 6 2 4 2 6 15 20 19 18 23 23 33 33 35 43 45 47 48 49 48 51 56 63
50 42 40 32 31 27 20 25 32 28 11 11 11 9 17 30 35 24 28 35 6 27 11 6 19 20 7 7 4 6 5 6 3 2 5 14 21 22 23 19 29 32 33 36 41 46 44 43 43 50 48 52 59 55
50 47 19 19 20 17 24 33 33 22 9 10 14 14 27 25 20 24 29 26 23 8 9 16 10 6 11 7 8 10 7 3 4 8 15 16 25 25 27 30 33 35 34 40 43 43 42 44 44 52 44 38 36 39
42 27 25 23 24 21 35 46 26 13 12 10 19 35 44 32 30 31 40 35 23 30 8 5 8 7 7 7 8 11 4 9 12 15 8 17 30 28 29 30 31 37 46 44 48 43 42 47 49 49 36 35 42 42
38 33 28 26 27 24 46 35 11 10 15 26 24 38 28 33 31 41 40 53 27 12 23 7 5 11 4 7 3 4 11 20 18 15 16 26 29 25 40 21 35 41 49 53 46 38 50 48 49 50 47 35 32 43
36 32 26 16 42 40 9 10 13 11 26 27 32 33 34 34 38 43 52 36 26 9 4 1 10 11 7 5 4 21 2 13 16 16 22 23 25 28 41 26 33 39 42 50 50 45 39 41 44 48 46 44 40 37
32 26 27 26 38 20 6 10 13 13 13 17 28 30 32 40 45 46 41 31 32 15 10 9 17 9 4 23 10 12 19 19 19 22 21 20 24 30 40 25 39 40 41 40 37 45 40 41 38 41 44 43 44 42
19 26 29 33 48 36 9 11 15 14 15 15 19 32 30 39 46 41 35 31 34 31 18 34 32 4 10 15 12 8 14 14 17 19 24 30 29 40 37 35 41 41 37 39 39 38 37 38 45 42 37 40 39 40
19 24 35 44 16 11 15 20 15 10 11 25 30 35 28 28 33 32 30 32 26 25 31 40 23 7 19 19 9 7 12 12 17 23 30 39 32 37 37 42 39 33 40 38 39 41 36 37 39 40 41 40 43 39
22 21 10 13 10 11 15 17 13 12 9 9 17 13 16 26 18 25 15 15 21 30 36 30 19 21 16 16 13 16 18 18 21 25 37 36 32 34 33 36 35 40 34 38 39 41 43 42 42 44 39 40 41 43
22 13 9 13 19 9 11 11 14 15 15 19 11 16 8 6 12 4 6 18 25 20 20 15 4 25 10 18 12 17 24 19 23 31 34 35 41 36 33 36 29 38 38 35 38 35 44 44 44 47 44 45 46 44
10 13 10 12 14 11 10 9 18 11 12 17 25 19 1 6 6 9 13 24 22 18 33 34 19 5 8 7 10 18 24 25 26 38 39 39 39 34 35 33 36 36 36 41 40 36 40 44 48 46 47 47 41 47
11 19 14 12 12 13 9 6 9 20 23 17 9 8 3 4 6 5 3 11 14 13 11 11 14 14 11 4 12 19 26 31 25 33 37 39 45 42 38 40 40 39 46 38 39 44 44 46 42 44 47 44 40 44
8 13 19 23 12 13 9 17 23 11 9 7 4 7 10 9 7 6 4 23 22 24 14 6 11 9 8 8 10 8 19 27 29 30 35 40 43 42 39 40 40 42 41 40 47 46 47 48 45 45 42 41 45 42
11 6 6 8 18 15 13 9 7 5 4 10 9 5 2 9 8 8 10 12 13 16 21 20 18 14 13 7 4 6 7 16 24 27 28 32 46 50 41 32 39 40 46 43 40 40 45 47 46 46 46 44 45 42
13 10 12 13 16 8 8 8 6 11 9 8 3 3 6 6 8 14 12 8 13 20 21 20 19 16 16 21 14 3 9 14 24 34 41 38 50 58 49 41 39 47 44 44 42 40 43 47 44 45 43 43 43 39
9 13 9 11 9 8 3 7 5 7 13 8 5 4 6 9 14 17 20 21 22 19 18 17 16 14 14 14 13 21 3 9 27 22 32 39 49 48 41 35 44 42 42 45 47 46 46 44 45 44 43 40 42 42
8 10 9 13 8 4 4 9 8 4 2 5 8 14 19 17 20 18 14 16 17 19 16 15 15 15 13 18 14 13 13 10 25 19 24 24 13 58 48 36 39 39 46 46 51 51 54 49 48 47 44 42 39 38
12 11 11 9 3 10 6 6 7 3 4 6 10 18 23 13 12 14 16 16 16 15 15 13 12 14 12 12 12 17 18 9 7 24 24 23 18 45 57 48 41 39 46 50 50 51 52 48 47 46 44 42 39 39
11 12 18 13 7 7 6 9 7 4 5 6 10 15 14 10 11 8 23 21 17 15 15 17 19 15 17 14 13 24 25 17 19 8 27 30 23 28 72 64 49 37 52 52 54 49 49 47 41 39 44 47 48 45
Wind_Direction_500mb
306 307 308 307 306 303 299 290 288 291 293 293 300 307 312 311 315 310 287 281 282 285 288 295 311 297 294 289 291 329 347 15 320 4 352 357 310 325 321 25 351 341 325 337 335 342 355 3 345 14 299 296 302 67
307 307 308 309 308 304 300 296 287 285 294 297 294 301 303 301 305 302 304 276 281 267 279 290 297 276 260 258 279 296 302 332 290 340 349 314 283 285 329 304 27 329 331 311 323 330 343 330 308 311 317 2 70 82
307 309 309 309 308 307 300 293 291 290 293 288 289 296 299 291 296 288 281 285 295 289 302 285 278 312 251 239 237 247 309 217 235 292 294 268 264 315 303 330 285 271 63 258 316 86 338 338 344 347 12 45 86 98
306 310 311 311 312 312 302 290 286 286 286 294 288 294 288 281 287 287 286 283 290 295 286 285 313 295 277 238 232 233 249 265 273 273 241 237 259 209 276 288 267 15 312 309 262 313 332 345 346 348 27 67 92 104
310 314 316 314 314 313 304 288 281 282 287 285 277 283 279 278 283 288 281 269 263 256 295 303 312 348 262 232 237 250 243 248 262 273 247 233 223 255 227 221 97 315 298 305 309 319 300 318 344 6 57 68 98 110
312 318 320 316 318 318 312 298 287 288 284 269 263 259 264 276 281 325 311 180 234 251 294 300 311 291 243 228 240 246 238 226 222 224 258 246 153 167 278 310 28 344 316 257 266 303 318 317 10 66 97 90 104 112
311 319 324 322 316 313 310 306 306 300 281 265 252 245 255 270 271 221 262 187 183 232 268 289 287 244 215 242 252 243 222 205 216 239 233 260 170 196 188 352 329 340 32 318 315 273 278 30 14 102 120 112 117 114
309 318 328 329 321 313 311 303 299 288 274 255 252 260 274 275 273 275 271 256 262 258 242 265 273 284 197 267 256 203 215 210 216 244 259 270 96 312 52 323 349 345 352 22 28 86 111 110 108 118 123 119 110 109
311 317 324 330 329 322 316 311 310 294 255 273 272 277 278 265 250 234 255 245 215 211 246 222 272 293 213 276 309 175 265 261 198 227 259 303 328 30 127 334 348 4 42 41 61 84 118 114 103 116 117 121 110 108
309 315 321 326 322 323 313 307 296 283 257 283 272 303 255 222 239 232 243 211 207 218 229 260 269 269 288 310 298 308 33 282 274 197 148 250 113 86 129 7 67 342 53 100 99 97 116 109 111 119 112 116 115 111
310 311 316 320 318 313 299 304 296 269 256 279 251 235 272 302 230 224 234 202 186 223 214 240 235 259 275 281 293 7 328 315 285 60 324 352 83 92 95 100 93 76 109 101 116 130 131 128 120 129 112 121 121 115
312 305 307 313 305 305 286 298 274 257 252 233 247 256 262 217 228 237 230 218 207 246 185 220 205 236 264 281 31 321 267 259 260 296 360 294 99 89 106 105 115 101 99 115 120 122 124 128 113 132 120 118 116 120
313 303 297 303 305 298 295 283 263 257 266 268 255 256 217 226 222 226 223 224 206 238 208 195 202 259 231 251 218 220 245 239 69 226 257 74 138 116 119 123 121 121 125 120 125 125 122 124 113 121 123 119 121 114
312 307 293 288 301 289 297 281 249 257 253 217 219 239 235 209 225 217 240 261 288 343 212 197 216 231 252 14 216 243 233 283 229 236 210 97 126 125 132 138 139 135 135 130 130 129 122 123 122 123 115 123 122 121
309 305 293 294 301 283 266 268 242 241 218 234 233 243 226 247 272 290 292 267 198 207 233 276 286 244 231 262 229 239 243 255 156 257 95 110 138 135 138 138 150 144 145 138 133 137 129 123 121 118 116 123 118 115
309 300 305 292 302 276 257 239 227 241 223 235 238 253 276 307 292 298 285 283 298 257 235 252 247 262 216 243 217 232 219 44 73 86 118 123 142 145 148 139 134 143 149 145 136 138 131 133 128 131 119 122 130 131
303 284 293 299 282 256 240 226 216 206 227 233 239 240 252 267 281 291 298 293 289 254 246 267 260 244 249 204 248 341 52 95 71 82 78 141 154 158 162 160 171 157 139 145 142 139 131 132 134 134 126 126 132 137
280 285 295 314 285 251 211 209 210 232 241 240 254 252 247 248 258 275 285 270 260 286 238 230 290 249 180 262 80 26 86 88 63 86 115 137 151 158 158 152 146 146 153 142 141 136 146 139 145 138 142 131 133 142
273 253 239 268 215 216 221 223 215 254 238 249 251 251 254 254 255 254 267 281 272 237 224 199 240 263 5 314 301 201 110 89 104 107 132 146 153 161 164 149 152 145 144 149 144 149 143 147 146 147 151 152 151 147
269 231 238 259 241 222 246 238 213 252 262 251 243 244 233 240 259 261 251 243 248 232 237 216 252 273 230 304 18 51 87 101 125 134 141 153 161 166 169 154 155 150 149 147 152 150 155 152 157 157 160 159 156 156
250 251 253 226 208 212 259 244 230 243 267 258 248 248 246 245 236 243 239 231 227 221 226 249 262 265 220 220 119 91 105 132 161 172 169 161 159 162 163 159 153 156 156 157 156 160 160 159 156 157 162 159 158 156
253 242 192 198 201 211 248 236 245 258 248 251 259 241 248 240 230 228 224 229 228 235 240 251 265 324 284 276 135 106 122 140 143 154 167 162 160 158 160 160 161 169 166 163 164 163 163 161 160 162 158 160 158 158
237 189 152 179 218 229 257 236 239 231 242 255 248 241 236 244 223 226 210 210 229 233 238 261 244 242 203 163 127 138 142 145 144 155 168 169 169 167 167 171 171 174 170 163 167 167 164 166 170 165 163 159 158 161
199 184 203 206 207 251 238 223 229 248 262 258 265 258 262 258 150 176 242 231 244 222 218 246 201 223 121 139 160 162 162 158 157 167 180 179 176 184 183 185 175 175 176 168 169 167 164 167 168 163 164 162 168 168
188 207 214 232 219 227 237 226 220 229 242 246 241 245 4 253 210 210 220 214 224 214 199 209 212 118 160 160 172 176 174 167 172 179 187 187 174 170 173 178 186 184 173 172 175 171 166 165 169 167 167 167 167 165
219 205 209 218 212 221 225 250 230 226 238 245 242 160 148 261 251 240 125 56 115 189 261 110 130 154 190 188 180 185 189 186 178 188 194 194 191 189 182 181 180 183 188 183 177 176 174 172 171 172 175 174 172 170
235 220 208 230 247 259 268 267 261 254 261 244 268 191 154 219 212 77 6 32 62 62 72 90 87 98 105 127 125 146 195 198 195 197 193 193 189 181 186 185 187 180 182 177 175 177 173 176 177 175 172 172 175 176
261 266 237 273 243 243 264 281 273 263 338 11 310 257 309 17 56 37 60 65 82 89 89 95 87 74 55 22 339 295 230 207 192 188 190 189 197 188 191 188 190 180 179 181 177 179 181 180 178 176 173 174 177 177
240 254 268 255 249 238 249 252 286 23 1 3 244 7 54 44 94 87 67 103 111 115 106 100 89 69 56 47 39 26 206 184 181 180 186 190 196 200 194 193 185 190 186 191 186 182 180 180 179 178 176 176 175 174
240 226 238 259 227 238 280 349 76 277 275 337 75 112 147 131 127 101 92 96 95 101 97 96 81 64 49 37 49 29 356 214 196 201 199 203 205 196 188 190 182 178 180 183 183 181 179 180 178 176 174 175 179 177
243 207 237 260 262 306 66 320 287 312 355 96 158 103 112 119 94 68 92 95 89 93 91 83 59 41 31 20 18 360 353 285 230 221 206 217 207 183 177 172 176 178 180 179 175 181 177 178 181 180 180 182 185 186
203 206 238 254 188 92 345 279 101 75 144 126 138 136 124 119 100 66 62 84 95 86 75 56 49 42 24 24 23 6 350 4 250 206 208 206 163 187 177 171 170 178 182 179 178 178 178 179 183 188 192 194 195 198
198 212 246 260 181 161 18 54 22 92 176 202 153 160 144 115 82 75 75 72 59 62 66 64 55 27 32 45 26 18 27 2 32 178 199 209 192 191 190 188 184 178 186 187 187 185 187 188 192 199 205 207 209 206
Wind_Speed_850mb
61 62 62 63 63 63 62 60 59 61 57 56 53 58 50 37 32 26 20 28 20 29 65 34 24 34 36 35 12 31 22 12 11 13 9 9 8 11 10 6 7 9 13 9 11 9 8 55 30 11 21 74 62 24
61 63 65 65 64 62 62 58 55 56 53 52 51 47 39 32 29 27 20 18 25 32 53 73 76 59 53 49 39 25 23 6 5 5 7 4 6 8 16 5 7 3 4 8 9 7 24 39 31 50 63 12 29 29
61 60 62 63 64 62 58 55 51 47 48 51 47 39 35 27 27 27 26 26 24 42 63 31 31 17 24 31 26 19 11 2 5 4 6 4 10 6 6 4 5 2 6 6 10 7 25 19 52 56 36 31 36 38
57 59 61 60 61 63 55 48 42 42 43 40 39 35 31 27 22 25 28 21 25 24 13 20 24 32 20 25 28 32 26 30 23 13 6 7 6 2 4 6 3 5 11 10 8 12 26 18 49 51 23 26 36 49
52 56 60 59 60 59 49 43 38 38 38 39 36 29 25 27 23 24 28 26 23 20 14 43 65 16 15 37 35 30 35 34 21 5 7 6 6 4 6 4 3 6 5 5 5 19 15 16 41 28 19 28 34 47
49 52 55 55 54 50 43 37 37 36 37 32 26 20 21 25 20 11 7 10 20 23 13 10 34 32 19 23 26 37 39 27 21 8 10 11 7 6 4 3 3 28 23 22 9 20 16 20 23 13 22 34 36 42
46 49 51 50 44 45 35 29 27 26 28 22 16 20 24 24 21 14 7 5 18 18 8 15 15 11 13 18 35 33 16 18 18 11 11 12 9 11 1 5 24 33 8 11 17 12 7 17 13 22 29 42 46 48
44 44 48 47 45 42 37 29 23 21 17 13 17 20 22 24 27 25 17 26 28 10 9 7 11 22 7 23 19 17 13 16 16 11 8 6 7 2 1 6 21 17 8 17 16 7 6 10 24 37 45 56 60 57
43 42 43 41 41 36 27 19 15 15 11 16 15 21 18 16 11 12 13 15 21 20 8 12 9 11 11 22 22 12 12 6 12 5 4 2 2 2 1 10 13 14 7 8 10 13 14 24 32 39 46 56 66 59
39 40 40 34 34 31 24 19 18 12 16 19 11 4 9 8 11 11 6 6 13 13 15 12 32 26 35 30 24 14 6 5 5 5 4 3 2 10 7 4 2 4 11 13 13 14 23 32 34 45 47 52 66 60
37 35 34 33 30 26 18 21 15 18 20 10 5 8 5 7 6 9 10 15 17 11 17 18 33 24 22 13 13 7 5 6 5 2 5 3 2 7 11 8 7 10 5 12 16 20 26 41 43 54 54 57 58 72
40 37 34 34 30 26 24 28 24 23 16 10 12 13 9 11 13 10 7 11 14 8 21 25 22 28 18 13 6 4 6 4 7 5 2 3 5 11 12 12 13 9 15 30 29 34 35 48 51 57 65 59 56 58
40 38 36 35 32 26 26 28 26 26 29 20 6 9 12 13 12 12 12 12 8 14 12 10 8 9 11 7 6 6 8 8 1 3 2 5 15 16 14 19 19 13 30 32 34 38 45 47 50 58 56 59 61 67
45 40 38 38 31 25 24 24 31 29 23 9 8 9 11 12 13 16 21 17 7 11 9 14 18 11 8 3 6 8 7 6 2 4 2 6 15 20 19 18 23 23 33 33 35 43 45 47 48 49 48 51 56 63
50 42 40 32 31 27 20 25 32 28 11 11 11 9 17 30 35 24 28 35 6 27 11 6 19 20 7 7 4 6 5 6 3 2 5 14 21 22 23 19 29 32 33 36 41 46 44 43 43 50 48 52 59 55
50 47 19 19 20 17 24 33 33 22 9 10 14 14 27 25 20 24 29 26 23 8 9 16 10 6 11 7 8 10 7 3 4 8 15 16 25 25 27 30 33 35 34 40 43 43 42 44 44 52 44 38 36 39
42 27 25 23 24 21 35 46 26 13 12 10 19 35 44 32 30 31 40 35 23 30 8 5 8 7 7 7 8 11 4 9 12 15 8 17 30 28 29 30 31 37 46 44 48 43 42 47 49 49 36 35 42 42
38 33 28 26 27 24 46 35 11 10 15 26 24 38 28 33 31 41 40 53 27 12 23 7 5 11 4 7 3 4 11 20 18 15 16 26 29 25 40 21 35 41 49 53 46 38 50 48 49 50 47 35 32 43
36 32 26 16 42 40 9 10 13 11 26 27 32 33 34 34 38 43 52 36 26 9 4 1 10 11 7 5 4 21 2 13 16 16 22 23 25 28 41 26 33 39 42 50 50 45 39 41 44 48 46 44 40 37
32 26 27 26 38 20 6 10 13 13 13 17 28 30 32 40 45 46 41 31 32 15 10 9 17 9 4 23 10 12 19 19 19 22 21 20 24 30 40 25 39 40 41 40 37 45 40 41 38 41 44 43 44 42
19 26 29 33 48 36 9 11 15 14 15 15 19 32 30 39 46 41 35 31 34 31 18 34 32 4 10 15 12 8 14 14 17 19 24 30 29 40 37 35 41 41 37 39 39 38 37 38 45 42 37 40 39 40
19 24 35 44 16 11 15 20 15 10 11 25 30 35 28 28 33 32 30 32 26 25 31 40 23 7 19 19 9 7 12 12 17 23 30 39 32 37 37 42 39 33 40 38 39 41 36 37 39 40 41 40 43 39
22 21 10 13 10 11 15 17 13 12 9 9 17 13 16 26 18 25 15 15 21 30 36 30 19 21 16 16 13 16 18 18 21 25 37 36 32 34 33 36 35 40 34 38 39 41 43 42 42 44 39 40 41 43
22 13 9 13 19 9 11 11 14 15 15 19 11 16 8 6 12 4 6 18 25 20 20 15 4 25 10 18 12 17 24 19 23 31 34 35 41 36 33 36 29 38 38 35 38 35 44 44 44 47 44 45 46 44
10 13 10 12 14 11 10 9 18 11 12 17 25 19 1 6 6 9 13 24 22 18 33 34 19 5 8 7 10 18 24 25 26 38 39 39 39 34 35 33 36 36 36 41 40 36 40 44 48 46 47 47 41 47
11 19 14 12 12 13 9 6 9 20 23 17 9 8 3 4 6 5 3 11 14 13 11 11 14 14 11 4 12 19 26 31 25 33 37 39 45 42 38 40 40 39 46 38 39 44 44 46 42 44 47 44 40 44
8 13 19 23 12 13 9 17 23 11 9 7 4 7 10 9 7 6 4 23 22 24 14 6 11 9 8 8 10 8 19 27 29 30 35 40 43 42 39 40 40 42 41 40 47 46 47 48 45 45 42 41 45 42
11 6 6 8 18 15 13 9 7 5 4 10 9 5 2 9 8 8 10 12 13 16 21 20 18 14 13 7 4 6 7 16 24 27 28 32 46 50 41 32 39 40 46 43 40 40 45 47 46 46 46 44 45 42
13 10 12 13 16 8 8 8 6 11 9 8 3 3 6 6 8 14 12 8 13 20 21 20 19 16 16 21 14 3 9 14 24 34 41 38 50 58 49 41 39 47 44 44 42 40 43 47 44 45 43 43 43 39
9 13 9 11 9 8 3 7 5 7 13 8 5 4 6 9 14 17 20 21 22 19 18 17 16 14 14 14 13 21 3 9 27 22 32 39 49 48 41 35 44 42 42 45 47 46 46 44 45 44 43 40 42 42
8 10 9 13 8 4 4 9 8 4 2 5 8 14 19 17 20 18 14 16 17 19 16 15 15 15 13 18 14 13 13 10 25 19 24 24 13 58 48 36 39 39 46 46 51 51 54 49 48 47 44 42 39 38
12 11 11 9 3 10 6 6 7 3 4 6 10 18 23 13 12 14 16 16 16 15 15 13 12 14 12 12 12 17 18 9 7 24 24 23 18 45 57 48 41 39 46 50 50 51 52 48 47 46 44 42 39 39
11 12 18 13 7 7 6 9 7 4 5 6 10 15 14 10 11 8 23 21 17 15 15 17 19 15 17 14 13 24 25 17 19 8 27 30 23 28 72 64 49 37 52 52 54 49 49 47 41 39 44 47 48 45
Wind_Direction_850mb
306 307 308 307 306 303 299 290 288 291 293 293 300 307 312 311 315 310 287 281 282 285 288 295 311 297 294 289 291 329 347 15 320 4 352 357 310 325 321 25 351 341 325 337 335 342 355 3 345 14 299 296 302 67
307 307 308 309 308 304 300 296 287 285 294 297 294 301 303 301 305 302 304 276 281 267 279 290 297 276 260 258 279 296 302 332 290 340 349 314 283 285 329 304 27 329 331 311 323 330 343 330 308 311 317 2 70 82
307 309 309 309 308 307 300 293 291 290 293 288 289 296 299 291 296 288 281 285 295 289 302 285 278 312 251 239 237 247 309 217 235 292 294 268 264 315 303 330 285 271 63 258 316 86 338 338 344 347 12 45 86 98
306 310 311 311 312 312 302 290 286 286 286 294 288 294 288 281 287 287 286 283 290 295 286 285 313 295 277 238 232 233 249 265 273 273 241 237 259 209 276 288 267 15 312 309 262 313 332 345 346 348 27 67 92 104
310 314 316 314 314 313 304 288 281 282 287 285 277 283 279 278 283 288 281 269 263 256 295 303 312 348 262 232 237 250 243 248 262 273 247 233 223 255 227 221 97 315 298 305 309 319 300 318 344 6 57 68 98 110
312 318 320 316 318 318 312 298 287 288 284 269 263 259 264 276 281 325 311 180 234 251 294 300 311 291 243 228 240 246 238 226 222 224 258 246 153 167 278 310 28 344 316 257 266 303 318 317 10 66 97 90 104 112
311 319 324 322 316 313 310 306 306 300 281 265 252 245 255 270 271 221 262 187 183 232 268 289 287 244 215 242 252 243 222 205 216 239 233 260 170 196 188 352 329 340 32 318 315 273 278 30 14 102 120 112 117 114
309 318 328 329 321 313 311 303 299 288 274 255 252 260 274 275 273 275 271 256 262 258 242 265 273 284 197 267 256 203 215 210 216 244 259 270 96 312 52 323 349 345 352 22 28 86 111 110 108 118 123 119 110 109
311 317 324 330 329 322 316 311 310 294 255 273 272 277 278 265 250 234 255 245 215 211 246 222 272 293 213 276 309 175 265 261 198 227 259 303 328 30 127 334 348 4 42 41 61 84 118 114 103 116 117 121 110 108
309 315 321 326 322 323 313 307 296 283 257 283 272 303 255 222 239 232 243 211 207 218 229 260 269 269 288 310 298 308 33 282 274 197 148 250 113 86 129 7 67 342 53 100 99 97 116 109 111 119 112 116 115 111
310 311 316 320 318 313 299 304 296 269 256 279 251 235 272 302 230 224 234 202 186 223 214 240 235 259 275 281 293 7 328 315 285 60 324 352 83 92 95 100 93 76 109 101 116 130 131 128 120 129 112 121 121 115
312 305 307 313 305 305 286 298 274 257 252 233 247 256 262 217 228 237 230 218 207 246 185 220 205 236 264 281 31 321 267 259 260 296 360 294 99 89 106 105 115 101 99 115 120 122 124 128 113 132 120 118 116 120
313 303 297 303 305 298 295 283 263 257 266 268 255 256 217 226 222 226 223 224 206 238 208 195 202 259 231 251 218 220 245 239 69 226 257 74 138 116 119 123 121 121 125 120 125 125 122 124 113 121 123 119 121 114
312 307 293 288 301 289 297 281 249 257 253 217 219 239 235 209 225 217 240 261 288 343 212 197 216 231 252 14 216 243 233 283 229 236 210 97 126 125 132 138 139 135 135 130 130 129 122 123 122 123 115 123 122 121
309 305 293 294 301 283 266 268 242 241 218 234 233 243 226 247 272 290 292 267 198 207 233 276 286 244 231 262 229 239 243 255 156 257 95 110 138 135 138 138 150 144 145 138 133 137 129 123 121 118 116 123 118 115
309 300 305 292 302 276 257 239 227 241 223 235 238 253 276 307 292 298 285 283 298 257 235 252 247 262 216 243 217 232 219 44 73 86 118 123 142 145 148 139 134 143 149 145 136 138 131 133 128 131 119 122 130 131
303 284 293 299 282 256 240 226 216 206 227 233 239 240 252 267 281 291 298 293 289 254 246 267 260 244 249 204 248 341 52 95 71 82 78 141 154 158 162 160 171 157 139 145 142 139 131 132 134 134 126 126 132 137
280 285 295 314 285 251 211 209 210 232 241 240 254 252 247 248 258 275 285 270 260 286 238 230 290 249 180 262 80 26 86 88 63 86 115 137 151 158 158 152 146 146 153 142 141 136 146 139 145 138 142 131 133 142
273 253 239 268 215 216 221 223 215 254 238 249 251 251 254 254 255 254 267 281 272 237 224 199 240 263 5 314 301 201 110 89 104 107 132 146 153 161 164 149 152 145 144 149 144 149 143 147 146 147 151 152 151 147
269 231 238 259 241 222 246 238 213 252 262 251 243 244 233 240 259 261 251 243 248 232 237 216 252 273 230 304 18 51 87 101 125 134 141 153 161 166 169 154 155 150 149 147 152 150 155 152 157 157 160 159 156 156
250 251 253 226 208 212 259 244 230 243 267 258 248 248 246 245 236 243 239 231 227 221 226 249 262 265 220 220 119 91 105 132 161 172 169 161 159 162 163 159 153 156 156 157 156 160 160 159 156 157 162 159 158 156
253 242 192 198 201 211 248 236 245 258 248 251 259 241 248 240 230 228 224 229 228 235 240 251 265 324 284 276 135 106 122 140 143 154 167 162 160 158 160 160 161 169 166 163 164 163 163 161 160 162 158 160 158 158
237 189 152 179 218 229 257 236 239 231 242 255 248 241 236 244 223 226 210 210 229 233 238 261 244 242 203 163 127 138 142 145 144 155 168 169 169 167 167 171 171 174 170 163 167 167 164 166 170 165 163 159 158 161
199 184 203 206 207 251 238 223 229 248 262 258 265 258 262 258 150 176 242 231 244 222 218 246 201 223 121 139 160 162 162 158 157 167 180 179 176 184 183 185 175 175 176 168 169 167 164 167 168 163 164 162 168 168
188 207 214 232 219 227 237 226 220 229 242 246 241 245 4 253 210 210 220 214 224 214 199 209 212 118 160 160 172 176 174 167 172 179 187 187 174 170 173 178 186 184 173 172 175 171 166 165 169 167 167 167 167 165
219 205 209 218 212 221 225 250 230 226 238 245 242 160 148 261 251 240 125 56 115 189 261 110 130 154 190 188 180 185 189 186 178 188 194 194 191 189 182 181 180 183 188 183 177 176 174 172 171 172 175 174 172 170
235 220 208 230 247 259 268 267 261 254 261 244 268 191 154 219 212 77 6 32 62 62 72 90 87 98 105 127 125 146 195 198 195 197 193 193 189 181 186 185 187 180 182 177 175 177 173 176 177 175 172 172 175 176
261 266 237 273 243 243 264 281 273 263 338 11 310 257 309 17 56 37 60 65 82 89 89 95 87 74 55 22 339 295 230 207 192 188 190 189 197 188 191 188 190 180 179 181 177 179 181 180 178 176 173 174 177 177
240 254 268 255 249 238 249 252 286 23 1 3 244 7 54 44 94 87 67 103 111 115 106 100 89 69 56 47 39 26 206 184 181 180 186 190 196 200 194 193 185 190 186 191 186 182 180 180 179 178 176 176 175 174
240 226 238 259 227 238 280 349 76 277 275 337 75 112 147 131 127 101 92 96 95 101 97 96 81 64 49 37 49 29 356 214 196 201 199 203 205 196 188 190 182 178 180 183 183 181 179 180 178 176 174 175 179 177
243 207 237 260 262 306 66 320 287 312 355 96 158 103 112 119 94 68 92 95 89 93 91 83 59 41 31 20 18 360 353 285 230 221 206 217 207 183 177 172 176 178 180 179 175 181 177 178 181 180 180 182 185 186
203 206 238 254 188 92 345 279 101 75 144 126 138 136 124 119 100 66 62 84 95 86 75 56 49 42 24 24 23 6 350 4 250 206 208 206 163 187 177 171 170 178 182 179 178 178 178 179 183 188 192 194 195 198
198 212 246 260 181 161 18 54 22 92 176 202 153 160 144 115 82 75 75 72 59 62 66 64 55 27 32 45 26 18 27 2 32 178 199 209 192 191 190 188 184 178 186 187 187 185 187 188 192 199 205 207 209 206